Location: Newark
(22.3060°N, 114.2134°E)
Time: 07:19:09
(UTC+00:00)

Tiros 1 despin weight - Pass Details

Date: 03 August 2021
Orbit: 593 x 641 km, 48.2° (Epoch: 27 September)

Event Time Altitude Azimuth Distance (km) Brightness Sun altitude
Rises 11:48:18 0° 321° (NW) 2,926 ? -10.7°
Reaches altitude 10° 11:50:41 10° 326° (NNW) 2,011 ? -11.2°
Maximum altitude 11:55:13 53° 44° (NE) 766 ? -12.1°
Enters shadow 11:58:19 19° 116° (ESE) 1,481 ? -12.8°
